STARLINK-31297, 59158

Orbit data source: Space-Track

STARLINK-31297, 59158 is a payload satellite owned by SpaceX/Seattle (US) in LEO that was launched on Mon, 04 Mar 2024 UTC via an FALCON 9 launch vehicle from the Air Force Eastern Test Range (AFETR). Payload-class satellites include a variety of spacecraft equipped with specific instruments for various scientific and technological missions. These include communications satellites like Starlink; space stations such as the ISS; scientific satellites like the Hubble; Earth observation satellites from companies like Planet Labs, Umbra, and HawkEye 360; GPS; miniature CubeSats for education and research; and military/defense satellites.

Loading next visibility...
Identifier
59158, 2024-044G
Orbit
LEO
Country
Flag of USUS
Related business
Manufacturer
SpaceX/Seattle
Mission
Operational Commercial Communications
Bus & Motor
STARLINK V2M, Unknown motor
Mass
730 kg wet, ~700 kg dry
Launch date (UTC)
2024-03-04 (2 years ago)
Launch vehicle
FALCON 9
Launch site
Air Force Eastern Test Range (AFETR)
Object type
Payload
Rocket body
Debris
Shape & HBR
Box + 2 Pan, 14.5 m
Radar Cross Section
33.884 m², Large (>1 m²)

Expand to show TLE details & history
Last TLE update: 10 hours ago

TLE from 10 hours ago
0 STARLINK-31297
1 59158U 24044G   25251.19373730 -.00001788  00000-0 -55471-4 0  9992
2 59158  43.0028  57.7996 0001353 271.2477  88.8219 15.27577154 85689
Epoch: 2025-09-08T04:38Z
TLE epoch observation values (Epoch: 2025-09-08T04:38:58.902Z)
Latitude
-0.00007°
Longitude
0.55173°
Altitude
482.814 km
Speed
7.626 km/s
True Right ascension
03h 51m 11s
True Declination
0° 00' 00"
Sunlit
Object was in daylight at epoch
Visualization orbit readout
Latitude
Unknown
Longitude
Unknown
Altitude
Unknown
Speed
Unknown
Apparent Right ascension
Unknown
Apparent Declination
Unknown
Sunlit
N/A
Visualization observer readout
Local Sidereal Time
06:21:23
Azimuth
Unknown
Elevation
Unknown
Doppler factor
Unknown
Orbital elements
Apogee altitude
485.931 km
Perigee altitude
484.074 km
Semi-major axis
6,863.139 km
Eccentricity
0.00014
Inclination
43.0028°
RAAN
57.7996°
Arg. of periapsis
271.2477°
True anomaly
88.8374°
Mean anomaly
88.8219°
Eccentric anomaly
88.82965°
Mean motion
3.81732 °/min
Orbital period
94.31 mins
BSTAR
-0.000055471
Loading maneuver chart data...
Computing Atmospheric mass density...
Loading historical data...
Loading historical data...
Loading historical data...
Loading historical data...
Loading historical data...
Loading historical data...
Loading historical data...

Documentation

Showing up to 5 results
|